FORMOSAT 7-1 (44349 NORAD) Tracking and Keplerian Element Data

This shows tracking and keplerian element data for the satellite.

Feedback or suggestion? Click here.




ElementValue
Catalog44349
NameFORMOSAT 7-1
Epoch Orbit393
Epoch Day203.52008779
Epoch Year2019
RAAN33.3808
Inclination24.0019
Eccentricity0.0012346
Argument of Perigee136.1698
Mean Anonmoly223.9764
Mean Motion14.5322425
Decay Rate2.27E-06
L11 44349U 19036L 19203.52008779 .00000227 00000-0 36038-5 0 9992
L22 44349 24.0019 33.3808 0012346 136.1698 223.9764 14.53224250 3933

Live tracking and technical data element details for FORMOSAT 7-1 (NORAD 44349). FORMOSAT 7-1 can be tracked NOW for your location showing map with azimuth and elevation plus other details from your city location.

Track the satellite on the map from your city or location and see movement details for azimuth, elevation, latitude, longitude, range, height, and movement on the map or in text.







IsCatalogInMostPopularTable: catalog: 44349, numindb: 14
Update: records affected: 1



GetName: 44349 FORMOSAT 7-1

Hit Count: updated at: Thu, 05 Dec 2019 16:51:06 GMT